Вернуться в каталог

STARLINK-35616

АктивенСвязьVLEO
NORAD 66255·PAYLOAD·🇺🇸 United States

Запущен Oct 29, 2025 с Cape Canaveral Space Force Station

Loading…

Ближайшие Пролёты (ближайшие 24 часа)

TLE

СвежийSource: CelesTrak SupGP

Эпоха: Sep 14, 2026, 21:20 UTC

1 66255C 25245X   26257.88937500 -.00027968  00000+0 -82711-3 0  2576
2 66255  53.1572 124.0991 0000999  89.5885  55.5615 15.34374323    18

Отслеживайте STARLINK-35616 в реальном времени с AllMySat

Download on the App Store